VOE9FT LICB-LIPX

Flight info

Callsign VOE9FT
Flight time 1h 29m
Altitude 18000
Route OBAXU N982 LIBRO/N0446F360 DCT AMANO/N0443F380 DCT VEXUV DCT IPGOR DCT OGAPU DCT BOA Y72 XUBKA
Aircraft A320/M-SDE3FGHIRWY/LB1

Departure

Time 2026-04-23 19:44
Airport Comiso Airport (LICB)

Arrival

Time 2026-04-23 21:14
Airport Verona Villafranca Valerio Catullo Airport (LIPX)
Time Latitude Longitude Altitude Speed Heading
2026-04-23 19:33 36.99842 14.60847 720 ft 0 kts 348°
2026-04-23 19:39 36.99843 14.60848 720 ft 0 kts 356°
2026-04-23 19:39 36.99847 14.60853 722 ft 1 kts 40°
2026-04-23 19:39 36.99847 14.60867 721 ft 1 kts 104°
2026-04-23 19:40 36.99841 14.60874 720 ft 3 kts 131°
2026-04-23 19:40 36.99809 14.60883 722 ft 5 kts 169°
2026-04-23 19:40 36.99779 14.60860 721 ft 8 kts 221°
2026-04-23 19:40 36.99726 14.60795 722 ft 11 kts 216°
2026-04-23 19:41 36.99660 14.60759 722 ft 9 kts 198°
2026-04-23 19:41 36.99604 14.60736 721 ft 8 kts 198°
2026-04-23 19:41 36.99554 14.60714 721 ft 9 kts 201°
2026-04-23 19:41 36.99483 14.60680 722 ft 13 kts 201°
2026-04-23 19:42 36.99399 14.60611 722 ft 17 kts 221°
2026-04-23 19:42 36.99312 14.60486 721 ft 21 kts 230°
2026-04-23 19:42 36.99209 14.60329 721 ft 25 kts 231°
2026-04-23 19:42 36.99087 14.60147 720 ft 29 kts 230°
2026-04-23 19:43 36.98952 14.59945 721 ft 32 kts 230°
2026-04-23 19:43 36.98856 14.59790 723 ft 16 kts 251°
2026-04-23 19:43 36.98816 14.59715 724 ft 10 kts 150°
2026-04-23 19:43 36.98825 14.59754 725 ft 4 kts 49°
2026-04-23 19:44 36.98900 14.59872 722 ft 52 kts 52°
2026-04-23 19:44 36.99311 14.60478 722 ft 129 kts 52°
2026-04-23 19:44 36.99991 14.61513 968 ft 164 kts 50°
2026-04-23 19:44 37.00791 14.62518 1830 ft 166 kts 28°
2026-04-23 19:45 37.01926 14.62736 2693 ft 171 kts 351°
2026-04-23 19:45 37.02937 14.61986 3343 ft 176 kts 310°
2026-04-23 19:45 37.03339 14.60550 3961 ft 180 kts 269°
2026-04-23 19:45 37.02895 14.59099 4570 ft 184 kts 227°
2026-04-23 19:46 37.01787 14.58346 5137 ft 185 kts 185°
2026-04-23 19:46 37.00511 14.58587 5554 ft 195 kts 162°
2026-04-23 19:46 36.99156 14.59126 5889 ft 210 kts 161°
2026-04-23 19:46 36.97712 14.59519 6369 ft 219 kts 181°
2026-04-23 19:47 36.96237 14.58974 6559 ft 237 kts 220°
2026-04-23 19:47 36.95282 14.57273 6851 ft 251 kts 259°
2026-04-23 19:47 36.95369 14.55078 7265 ft 261 kts 295°
2026-04-23 19:47 36.96521 14.53362 8008 ft 264 kts 329°
2026-04-23 19:48 36.98281 14.52697 8862 ft 268 kts 353°
2026-04-23 19:48 37.00163 14.52685 9774 ft 272 kts
2026-04-23 19:48 37.02070 14.52893 10471 ft 282 kts
2026-04-23 19:48 37.04105 14.53130 10725 ft 304 kts 360°
2026-04-23 19:49 37.06201 14.52708 11273 ft 310 kts 337°
2026-04-23 19:49 37.08139 14.51511 12049 ft 312 kts 331°
2026-04-23 19:49 37.10050 14.50207 12888 ft 313 kts 330°
2026-04-23 19:49 37.11937 14.48903 13683 ft 315 kts 330°
2026-04-23 19:50 37.13865 14.47564 14419 ft 317 kts 330°
2026-04-23 19:50 37.15804 14.46214 15097 ft 320 kts 330°
2026-04-23 19:50 37.17762 14.44851 15779 ft 323 kts 330°
2026-04-23 19:50 37.19788 14.43596 16441 ft 326 kts 338°
2026-04-23 19:51 37.22009 14.42899 17111 ft 332 kts 350°
2026-04-23 19:51 37.24306 14.42844 17763 ft 338 kts
2026-04-23 19:51 37.26664 14.43083 18413 ft 342 kts
2026-04-23 19:51 37.29046 14.43314 18989 ft 345 kts
2026-04-23 19:52 37.31450 14.43542 19569 ft 347 kts
2026-04-23 19:52 37.33868 14.43769 20149 ft 349 kts
2026-04-23 19:52 37.36307 14.44000 20697 ft 353 kts
2026-04-23 19:52 37.38764 14.44233 21230 ft 356 kts
2026-04-23 19:53 37.41249 14.44469 21777 ft 360 kts
2026-04-23 19:53 37.43761 14.44708 22319 ft 364 kts
2026-04-23 19:53 37.46299 14.44950 22859 ft 367 kts
2026-04-23 19:53 37.48866 14.45194 23384 ft 371 kts
2026-04-23 19:54 37.51419 14.45438 23854 ft 374 kts
2026-04-23 19:54 37.54029 14.45685 24278 ft 377 kts
2026-04-23 19:54 37.56656 14.45934 24714 ft 380 kts
2026-04-23 19:54 37.59302 14.46185 25124 ft 382 kts 360°
2026-04-23 19:55 37.61954 14.46189 25526 ft 381 kts 351°
2026-04-23 19:55 37.64556 14.45615 25907 ft 379 kts 341°
2026-04-23 19:55 37.67099 14.44693 26303 ft 381 kts 341°
2026-04-23 19:55 37.69657 14.43758 26690 ft 383 kts 341°
2026-04-23 19:56 37.72229 14.42818 27080 ft 386 kts 341°
2026-04-23 19:56 37.74818 14.41874 27456 ft 388 kts 341°
2026-04-23 19:56 37.77427 14.40925 27856 ft 390 kts 343°
2026-04-23 19:56 37.80044 14.39975 28226 ft 392 kts 343°
2026-04-23 19:57 37.82675 14.39021 28556 ft 395 kts 343°
2026-04-23 19:57 37.85327 14.38059 28913 ft 397 kts 342°
2026-04-23 19:57 37.87957 14.37105 29261 ft 399 kts 342°
2026-04-23 19:57 37.90635 14.36133 29590 ft 401 kts 342°
2026-04-23 19:58 37.93331 14.35151 29913 ft 403 kts 342°
2026-04-23 19:58 37.96040 14.34160 30239 ft 405 kts 342°
2026-04-23 19:58 37.98759 14.33163 30497 ft 407 kts 342°
2026-04-23 19:58 38.01491 14.32163 30755 ft 409 kts 343°
2026-04-23 19:59 38.04232 14.31161 30997 ft 411 kts 343°
2026-04-23 19:59 38.06988 14.30156 31227 ft 412 kts 343°
2026-04-23 19:59 38.09751 14.29147 31463 ft 414 kts 343°
2026-04-23 19:59 38.12521 14.28131 31733 ft 414 kts 343°
2026-04-23 20:00 38.15259 14.27125 32060 ft 413 kts 343°
2026-04-23 20:00 38.18022 14.26110 32381 ft 412 kts 343°
2026-04-23 20:00 38.20780 14.25094 32697 ft 412 kts 343°
2026-04-23 20:00 38.23532 14.24078 33008 ft 411 kts 343°
2026-04-23 20:01 38.26284 14.23063 33290 ft 412 kts 344°
2026-04-23 20:01 38.29044 14.22045 33497 ft 414 kts 344°
2026-04-23 20:01 38.31815 14.21025 33746 ft 414 kts 344°
2026-04-23 20:01 38.34575 14.20008 34112 ft 412 kts 344°
2026-04-23 20:02 38.37334 14.18992 34403 ft 411 kts 344°
2026-04-23 20:02 38.40078 14.17978 34657 ft 411 kts 343°
2026-04-23 20:02 38.42826 14.16959 34890 ft 411 kts 343°
2026-04-23 20:02 38.45577 14.15939 35116 ft 411 kts 343°
2026-04-23 20:03 38.48323 14.14921 35336 ft 411 kts 343°
2026-04-23 20:03 38.51080 14.13900 35495 ft 413 kts 344°
2026-04-23 20:03 38.53818 14.12888 35624 ft 416 kts 344°
2026-04-23 20:03 38.56610 14.11857 35796 ft 417 kts 344°
2026-04-23 20:04 38.59403 14.10826 35999 ft 417 kts 344°
2026-04-23 20:04 38.62194 14.09791 36101 ft 417 kts 344°
2026-04-23 20:04 38.64978 14.08754 36119 ft 417 kts 343°
2026-04-23 20:05 38.70556 14.06657 36127 ft 417 kts 343°
2026-04-23 20:05 38.76093 14.04580 36125 ft 417 kts 345°
2026-04-23 20:06 38.81668 14.02494 36122 ft 417 kts 345°
2026-04-23 20:06 38.87253 14.00414 36123 ft 417 kts 345°
2026-04-23 20:07 38.92834 13.98328 36125 ft 417 kts 345°
2026-04-23 20:07 38.98414 13.96234 36124 ft 417 kts 346°
2026-04-23 20:08 39.03951 13.94160 36128 ft 417 kts 346°
2026-04-23 20:08 39.09516 13.92058 36132 ft 417 kts 346°
2026-04-23 20:09 39.15090 13.89936 36138 ft 417 kts 346°
2026-04-23 20:09 39.20662 13.87824 36137 ft 417 kts 346°
2026-04-23 20:10 39.25281 13.86076 36135 ft 416 kts 346°
2026-04-23 20:10 39.31728 13.83630 36140 ft 414 kts 346°
2026-04-23 20:11 39.37256 13.81538 36133 ft 414 kts 346°
2026-04-23 20:11 39.42791 13.79440 36138 ft 414 kts 346°
2026-04-23 20:11 39.45562 13.78385 36299 ft 415 kts 346°
2026-04-23 20:12 39.48331 13.77330 36517 ft 414 kts 346°
2026-04-23 20:12 39.51103 13.76273 36743 ft 414 kts 346°
2026-04-23 20:12 39.53837 13.75229 36956 ft 413 kts 346°
2026-04-23 20:12 39.56600 13.74175 37151 ft 413 kts 346°
2026-04-23 20:13 39.59357 13.73124 37344 ft 413 kts 345°
2026-04-23 20:13 39.62111 13.72074 37544 ft 413 kts 345°
2026-04-23 20:13 39.64869 13.71021 37731 ft 412 kts 345°
2026-04-23 20:13 39.67623 13.69973 37888 ft 412 kts 345°
2026-04-23 20:14 39.70380 13.68925 38069 ft 412 kts 345°
2026-04-23 20:14 39.75898 13.66809 38146 ft 413 kts 345°
2026-04-23 20:15 39.81411 13.64692 38149 ft 413 kts 345°
2026-04-23 20:15 39.86655 13.62683 38152 ft 413 kts 345°
2026-04-23 20:16 39.92166 13.60566 38152 ft 413 kts 345°
2026-04-23 20:16 39.97680 13.58440 38152 ft 413 kts 345°
2026-04-23 20:17 40.03160 13.56317 38153 ft 413 kts 345°
2026-04-23 20:17 40.08673 13.54182 38154 ft 413 kts 345°
2026-04-23 20:18 40.14190 13.52047 38140 ft 413 kts 345°
2026-04-23 20:18 40.19711 13.49908 38135 ft 414 kts 345°
2026-04-23 20:19 40.25250 13.47753 38121 ft 415 kts 345°
2026-04-23 20:19 40.30785 13.45592 38133 ft 415 kts 345°
2026-04-23 20:20 40.36297 13.43438 38147 ft 416 kts 345°
2026-04-23 20:20 40.41861 13.41273 38147 ft 417 kts 345°
2026-04-23 20:21 40.47427 13.39092 38150 ft 418 kts 345°
2026-04-23 20:21 40.53006 13.36903 38153 ft 418 kts 345°
2026-04-23 20:22 40.58579 13.34718 38151 ft 418 kts 345°
2026-04-23 20:22 40.64129 13.32538 38152 ft 419 kts 345°
2026-04-23 20:23 40.69722 13.30331 38163 ft 420 kts 345°
2026-04-23 20:23 40.75300 13.27967 38164 ft 421 kts 343°
2026-04-23 20:24 40.80821 13.25382 38152 ft 421 kts 343°
2026-04-23 20:24 40.86316 13.22791 38134 ft 423 kts 343°
2026-04-23 20:25 40.91881 13.20219 38133 ft 424 kts 343°
2026-04-23 20:25 40.97461 13.17666 38145 ft 425 kts 343°
2026-04-23 20:26 41.03058 13.15100 38143 ft 425 kts 343°
2026-04-23 20:26 41.08653 13.12525 38130 ft 426 kts 343°
2026-04-23 20:27 41.14256 13.09930 38141 ft 426 kts 343°
2026-04-23 20:27 41.19821 13.07351 38152 ft 426 kts 343°
2026-04-23 20:28 41.25428 13.04752 38142 ft 426 kts 343°
2026-04-23 20:28 41.30094 13.02584 38142 ft 427 kts 343°
2026-04-23 20:29 41.35706 12.99970 38148 ft 427 kts 343°
2026-04-23 20:29 41.41291 12.97363 38150 ft 427 kts 343°
2026-04-23 20:30 41.46922 12.94737 38153 ft 427 kts 343°
2026-04-23 20:30 41.55347 12.90802 38152 ft 427 kts 343°
2026-04-23 20:31 41.60957 12.88168 38154 ft 427 kts 343°
2026-04-23 20:31 41.66532 12.85545 38158 ft 427 kts 343°
2026-04-23 20:32 41.72133 12.82900 38161 ft 426 kts 343°
2026-04-23 20:32 41.77725 12.80255 38163 ft 425 kts 344°
2026-04-23 20:33 41.83266 12.77641 38157 ft 424 kts 344°
2026-04-23 20:33 41.88842 12.75002 38129 ft 424 kts 343°
2026-04-23 20:34 41.94415 12.72352 38139 ft 424 kts 343°
2026-04-23 20:34 41.99985 12.69704 38151 ft 424 kts 343°
2026-04-23 20:35 42.05555 12.67051 38157 ft 424 kts 343°
2026-04-23 20:35 42.11118 12.64395 38157 ft 424 kts 343°
2026-04-23 20:36 42.16649 12.61751 38158 ft 424 kts 343°
2026-04-23 20:36 42.22219 12.59086 38159 ft 424 kts 343°
2026-04-23 20:37 42.27784 12.56417 38160 ft 424 kts 343°
2026-04-23 20:37 42.33346 12.53737 38155 ft 424 kts 343°
2026-04-23 20:38 42.38908 12.51059 38159 ft 424 kts 343°
2026-04-23 20:38 42.44429 12.48394 38166 ft 423 kts 343°
2026-04-23 20:39 42.49981 12.45706 38163 ft 423 kts 343°
2026-04-23 20:39 42.55526 12.43023 38161 ft 423 kts 343°
2026-04-23 20:40 42.61068 12.40338 38149 ft 423 kts 343°
2026-04-23 20:40 42.66611 12.37647 38151 ft 423 kts 343°
2026-04-23 20:41 42.72159 12.34946 38156 ft 423 kts 343°
2026-04-23 20:41 42.77712 12.32238 38152 ft 424 kts 343°
2026-04-23 20:42 42.83234 12.29531 38151 ft 424 kts 343°
2026-04-23 20:42 42.88788 12.26806 38162 ft 424 kts 343°
2026-04-23 20:43 42.94303 12.23882 38165 ft 426 kts 341°
2026-04-23 20:43 42.99788 12.20786 38167 ft 426 kts 341°
2026-04-23 20:44 43.05271 12.17702 38175 ft 426 kts 341°
2026-04-23 20:44 43.10767 12.14660 38186 ft 426 kts 341°
2026-04-23 20:45 43.16232 12.11644 38188 ft 426 kts 341°
2026-04-23 20:45 43.21728 12.08599 38181 ft 426 kts 341°
2026-04-23 20:46 43.27226 12.05542 38194 ft 426 kts 341°
2026-04-23 20:46 43.32710 12.02480 38184 ft 426 kts 341°
2026-04-23 20:47 43.38182 11.99429 38192 ft 426 kts 341°
2026-04-23 20:47 43.43679 11.96354 38200 ft 426 kts 341°
2026-04-23 20:48 43.49173 11.93271 38200 ft 426 kts 341°
2026-04-23 20:48 43.54622 11.90205 38207 ft 425 kts 341°
2026-04-23 20:49 43.60112 11.87114 38202 ft 425 kts 341°
2026-04-23 20:49 43.65593 11.84018 38204 ft 426 kts 341°
2026-04-23 20:50 43.71089 11.80917 38210 ft 426 kts 341°
2026-04-23 20:50 43.76580 11.77806 38208 ft 426 kts 341°
2026-04-23 20:51 43.82042 11.74711 38209 ft 426 kts 341°
2026-04-23 20:51 43.87522 11.71596 38214 ft 426 kts 341°
2026-04-23 20:52 43.93003 11.68466 37258 ft 426 kts 341°
2026-04-23 20:52 43.95786 11.66880 35614 ft 440 kts 340°
2026-04-23 20:52 43.98628 11.65264 34900 ft 439 kts 340°
2026-04-23 20:53 44.01408 11.63676 34713 ft 425 kts 340°
2026-04-23 20:53 44.04130 11.62117 34195 ft 421 kts 340°
2026-04-23 20:53 44.06793 11.60588 33653 ft 417 kts 340°
2026-04-23 20:53 44.09460 11.59057 33147 ft 412 kts 340°
2026-04-23 20:54 44.12095 11.57543 32629 ft 408 kts 340°
2026-04-23 20:54 44.14704 11.56040 32129 ft 404 kts 340°
2026-04-23 20:54 44.17279 11.54504 31626 ft 401 kts 338°
2026-04-23 20:54 44.19794 11.52853 31129 ft 398 kts 336°
2026-04-23 20:55 44.22261 11.51128 30641 ft 395 kts 335°
2026-04-23 20:55 44.24701 11.49376 30130 ft 393 kts 335°
2026-04-23 20:55 44.27113 11.47645 29617 ft 388 kts 335°
2026-04-23 20:55 44.29511 11.45938 29154 ft 383 kts 335°
2026-04-23 20:56 44.31874 11.44275 28696 ft 378 kts 336°
2026-04-23 20:56 44.34210 11.42645 28248 ft 374 kts 336°
2026-04-23 20:56 44.36527 11.41034 27811 ft 370 kts 336°
2026-04-23 20:56 44.38792 11.39462 27394 ft 366 kts 336°
2026-04-23 20:57 44.41062 11.37886 26962 ft 362 kts 336°
2026-04-23 20:57 44.43307 11.36324 26529 ft 359 kts 336°
2026-04-23 20:57 44.45536 11.34773 26113 ft 355 kts 336°
2026-04-23 20:57 44.47721 11.33249 25686 ft 353 kts 336°
2026-04-23 20:58 44.49910 11.31723 25243 ft 350 kts 336°
2026-04-23 20:58 44.52081 11.30207 24812 ft 347 kts 336°
2026-04-23 20:58 44.54299 11.28901 24371 ft 343 kts 345°
2026-04-23 20:58 44.56600 11.28070 23932 ft 341 kts 348°
2026-04-23 20:59 44.58905 11.27293 23431 ft 339 kts 348°
2026-04-23 20:59 44.61189 11.26523 22975 ft 336 kts 348°
2026-04-23 20:59 44.63457 11.25758 22531 ft 333 kts 348°
2026-04-23 20:59 44.65701 11.25000 22098 ft 331 kts 348°
2026-04-23 21:00 44.67933 11.24244 21672 ft 328 kts 348°
2026-04-23 21:00 44.70148 11.23496 21237 ft 326 kts 348°
2026-04-23 21:00 44.72353 11.22749 20819 ft 324 kts 348°
2026-04-23 21:00 44.74541 11.22007 20398 ft 323 kts 348°
2026-04-23 21:01 44.76693 11.21272 19973 ft 322 kts 348°
2026-04-23 21:01 44.78863 11.20481 19412 ft 325 kts 342°
2026-04-23 21:01 44.80866 11.18874 18578 ft 338 kts 321°
2026-04-23 21:01 44.82519 11.16496 17628 ft 340 kts 316°
2026-04-23 21:02 44.84134 11.14047 16676 ft 341 kts 316°
2026-04-23 21:02 44.85743 11.11586 15757 ft 341 kts 316°
2026-04-23 21:02 44.87355 11.09119 14861 ft 341 kts 316°
2026-04-23 21:02 44.88961 11.06669 14067 ft 339 kts 316°
2026-04-23 21:03 44.90553 11.04242 13262 ft 334 kts 316°
2026-04-23 21:03 44.92121 11.01849 12435 ft 330 kts 316°
2026-04-23 21:03 44.93657 10.99505 11907 ft 318 kts 316°
2026-04-23 21:03 44.95103 10.97293 11645 ft 305 kts 316°
2026-04-23 21:04 44.96524 10.95119 11351 ft 297 kts 316°
2026-04-23 21:04 44.97923 10.92981 10782 ft 292 kts 316°
2026-04-23 21:04 44.99272 10.90916 10375 ft 281 kts 316°
2026-04-23 21:04 45.00595 10.88895 9998 ft 280 kts 316°
2026-04-23 21:05 45.01922 10.86870 9584 ft 280 kts 316°
2026-04-23 21:05 45.03241 10.84854 9195 ft 279 kts 315°
2026-04-23 21:05 45.04553 10.82843 8808 ft 277 kts 315°
2026-04-23 21:05 45.05856 10.80839 8412 ft 276 kts 315°
2026-04-23 21:06 45.07152 10.78847 8013 ft 275 kts 315°
2026-04-23 21:06 45.08423 10.76887 7728 ft 269 kts 315°
2026-04-23 21:06 45.09654 10.74984 7646 ft 255 kts 315°
2026-04-23 21:06 45.10822 10.73181 7570 ft 242 kts 315°
2026-04-23 21:07 45.11932 10.71466 7466 ft 233 kts 315°
2026-04-23 21:07 45.13026 10.69781 7370 ft 232 kts 315°
2026-04-23 21:07 45.14125 10.68104 7261 ft 232 kts 316°
2026-04-23 21:07 45.15272 10.66470 6887 ft 234 kts 318°
2026-04-23 21:08 45.16455 10.64853 6437 ft 238 kts 318°
2026-04-23 21:08 45.17654 10.63235 6065 ft 237 kts 318°
2026-04-23 21:08 45.18950 10.61835 5708 ft 234 kts 340°
2026-04-23 21:08 45.20529 10.61750 5380 ft 231 kts 18°
2026-04-23 21:09 45.21837 10.63060 5052 ft 233 kts 43°
2026-04-23 21:09 45.22977 10.64705 4700 ft 234 kts 44°
2026-04-23 21:09 45.24085 10.66365 4315 ft 236 kts 44°
2026-04-23 21:09 45.25215 10.68059 3974 ft 236 kts 43°
2026-04-23 21:10 45.26359 10.69721 3664 ft 234 kts 42°
2026-04-23 21:10 45.27502 10.71370 3365 ft 233 kts 43°
2026-04-23 21:10 45.28629 10.72998 3049 ft 228 kts 42°
2026-04-23 21:10 45.29718 10.74573 2758 ft 218 kts 42°
2026-04-23 21:11 45.30756 10.76075 2479 ft 209 kts 41°
2026-04-23 21:11 45.31736 10.77494 2227 ft 193 kts 41°
2026-04-23 21:11 45.32634 10.78796 1961 ft 177 kts 40°
2026-04-23 21:11 45.33447 10.79974 1753 ft 161 kts 40°
2026-04-23 21:12 45.34213 10.81083 1530 ft 151 kts 40°
2026-04-23 21:12 45.34931 10.82121 1337 ft 148 kts 41°
2026-04-23 21:12 45.35649 10.83160 1139 ft 146 kts 41°
2026-04-23 21:12 45.36350 10.84176 949 ft 143 kts 43°
2026-04-23 21:13 45.37041 10.85179 760 ft 141 kts 44°
2026-04-23 21:13 45.37725 10.86169 570 ft 139 kts 43°
2026-04-23 21:13 45.38400 10.87144 369 ft 137 kts 45°
2026-04-23 21:13 45.39055 10.88101 247 ft 128 kts 43°
2026-04-23 21:14 45.39592 10.88875 240 ft 86 kts 44°
2026-04-23 21:14 45.39885 10.89314 240 ft 37 kts 47°
2026-04-23 21:14 45.40008 10.89494 244 ft 23 kts 46°
2026-04-23 21:14 45.40125 10.89661 246 ft 24 kts 47°
2026-04-23 21:15 45.40244 10.89832 246 ft 25 kts 48°
2026-04-23 21:15 45.40295 10.90047 245 ft 18 kts 76°
2026-04-23 21:15 45.40331 10.90224 243 ft 16 kts 75°
2026-04-23 21:15 45.40280 10.90345 242 ft 11 kts 135°
2026-04-23 21:16 45.40222 10.90406 242 ft 10 kts 168°
2026-04-23 21:16 45.40171 10.90406 242 ft 0 kts 179°